PWSat 2 (43814 NORAD) Tracking and Keplerian Element Data

This shows tracking and keplerian element data for the satellite.

Feedback or suggestion? Click here.




ElementValue
Catalog43814
NamePWSat 2
Epoch Orbit2497
Epoch Day143.79653654
Epoch Year2019
RAAN216.7338
Inclination97.7732
Eccentricity0.0008368
Argument of Perigee81.7715
Mean Anonmoly278.443
Mean Motion14.98891299
Decay Rate0.00012345
L11 43814U 18099BJ 19143.79653654 .00012345 00000-0 10248-2 0 9992
L22 43814 97.7732 216.7338 0008368 81.7715 278.4430 14.98891299 24971

Live tracking and technical data element details for PWSat 2 (NORAD 43814). PWSat 2 can be tracked NOW for your location showing map with azimuth and elevation plus other details from your city location.

Track the satellite on the map from your city or location and see movement details for azimuth, elevation, latitude, longitude, range, height, and movement on the map or in text.







IsCatalogInMostPopularTable: catalog: 43814, numindb: 164
Update: records affected: 1



GetName: 43814 PWSat 2

Hit Count: updated at: Sun, 26 May 2019 08:53:20 GMT